Weather History for KUVA - February, 2014

Change the Weather History Date:

Friday, February 14, 2014

  Actual Average (KHDO) Record (KHDO)
Temperature  
Mean Temperature 64 °F -  
Max Temperature 91 °F 65 °F 93 °F (2014)
Min Temperature 38 °F 42 °F 26 °F (1999)
Growing Degree Days 14 (Base 50)    
Moisture  
Dew Point 34 °F    
Average Humidity 49    
Maximum Humidity 92    
Minimum Humidity 9    
Precipitation  
Precipitation 0.00 in - - ()
Sea Level Pressure  
Sea Level Pressure 29.94 in    
Wind  
Wind Speed 6 mph (NE)    
Max Wind Speed 16 mph    
Max Gust Speed 22 mph    
Visibility 10 miles    
Events      
Averages and records for this station are not official NWS values.
T = Trace of Precipitation, MM = Missing Value Source: NWS Daily Summary

Daily Weather History Graph

Daily Weather History Graph

Search for Another Location

Airport or City:

Trip Planner

Search our weather history database for the weather conditions in past years. The results will help you decide how hot, cold, wet, or windy it might be!

Date:

Astronomy

Feb. 14, 2014 Rise Set
Actual Time 7:18 AM CST 6:27 PM CST
Civil Twilight 6:54 AM CST 6:52 PM CST
Nautical Twilight 6:26 AM CST 7:20 PM CST
Astronomical Twilight 5:58 AM CST 7:47 PM CST
Moon 6:29 PM CST (2/14) 6:49 AM CST (2/14)
Length of Visible Light 11h 57m
Length of Day
11h 09m
Full, 100% of the Moon is Illuminated
Feb 14
Full
Feb 14
Full
Feb 22
Last Quarter
Mar 1
New
Mar 8
First Quarter

Hourly Weather History & Observations

Time (CST) Temp. Windchill Dew Point Humidity Pressure Visibility Wind Dir Wind Speed Gust Speed Precip Events Conditions
12:15 AM 47.7 °F - 32.5 °F 56% 29.96 in 10.0 mi ENE 5.8 mph - N/A   Clear
12:35 AM 47.7 °F - 34.5 °F 60% 29.96 in 10.0 mi East 5.8 mph - N/A   Clear
12:55 AM 47.7 °F - 35.6 °F 63% 29.96 in 10.0 mi ENE 5.8 mph - N/A   Clear
1:15 AM 45.1 °F 42.0 °F 34.7 °F 67% 29.96 in 10.0 mi ENE 5.8 mph - N/A   Clear
1:35 AM 45.3 °F 42.3 °F 35.4 °F 68% 29.96 in 10.0 mi NE 5.8 mph - N/A   Clear
1:55 AM 44.6 °F 42.2 °F 35.8 °F 71% 29.95 in 10.0 mi NE 4.6 mph - N/A   Clear
2:15 AM 42.8 °F 40.1 °F 34.5 °F 73% 29.93 in 10.0 mi NE 4.6 mph - N/A   Clear
2:35 AM 42.6 °F 39.9 °F 35.1 °F 75% 29.92 in 10.0 mi ENE 4.6 mph - N/A   Clear
2:55 AM 41.5 °F 37.1 °F 35.2 °F 78% 29.92 in 10.0 mi NE 6.9 mph - N/A   Clear
3:15 AM 42.4 °F 38.8 °F 36.1 °F 78% 29.92 in 10.0 mi NE 5.8 mph - N/A   Clear
3:35 AM 42.4 °F 38.8 °F 36.5 °F 79% 29.93 in 10.0 mi NNE 5.8 mph - N/A   Clear
3:55 AM 41.9 °F 39.0 °F 36.9 °F 82% 29.92 in 10.0 mi NNE 4.6 mph - N/A   Clear
4:15 AM 42.1 °F 39.2 °F 36.7 °F 81% 29.91 in 10.0 mi NE 4.6 mph - N/A   Clear
4:35 AM 41.0 °F 39.0 °F 36.7 °F 85% 29.90 in 10.0 mi NE 3.5 mph - N/A   Clear
4:55 AM 40.1 °F 38.0 °F 36.1 °F 86% 29.89 in 10.0 mi NNE 3.5 mph - N/A   Clear
5:15 AM 40.1 °F 38.0 °F 36.3 °F 86% 29.90 in 10.0 mi NNE 3.5 mph - N/A   Clear
5:35 AM 38.8 °F 34.6 °F 35.6 °F 88% 29.91 in 10.0 mi NNE 5.8 mph - N/A   Clear
5:55 AM 40.1 °F 36.1 °F 36.7 °F 88% 29.90 in 10.0 mi NE 5.8 mph - N/A   Clear
6:15 AM 39.9 °F - 37.0 °F 89% 29.90 in 10.0 mi Calm Calm - N/A   Clear
6:35 AM 39.0 °F - 36.3 °F 90% 29.89 in 10.0 mi Calm Calm - N/A   Clear
6:55 AM 38.5 °F 35.0 °F 36.0 °F 91% 29.90 in 10.0 mi NE 4.6 mph - N/A   Clear
7:15 AM 38.8 °F 35.4 °F 36.0 °F 89% 29.91 in 10.0 mi NNE 4.6 mph - N/A   Clear
7:35 AM 38.3 °F - 36.1 °F 92% 29.91 in 10.0 mi Calm Calm - N/A   Clear
8:15 AM 41.0 °F - 37.2 °F 86% 29.93 in 10.0 mi Calm Calm - N/A   Clear
8:35 AM 46.0 °F - 39.6 °F 78% 29.94 in 10.0 mi Calm Calm - N/A   Clear
8:55 AM 50.2 °F - 41.7 °F 73% 29.94 in 10.0 mi Calm Calm - N/A   Clear
9:15 AM 52.7 °F - 43.0 °F 70% 29.95 in 10.0 mi Calm Calm - N/A   Clear
9:35 AM 54.3 °F - 44.2 °F 69% 29.94 in 10.0 mi Calm Calm - N/A   Clear
10:35 AM 59.0 °F - 44.6 °F 59% 29.95 in 10.0 mi West 3.5 mph - N/A   Clear
10:55 AM 61.2 °F - 44.6 °F 54% 29.94 in 10.0 mi West 5.8 mph - N/A   Clear
11:15 AM 64.9 °F - 45.5 °F 49% 29.94 in 10.0 mi West 6.9 mph - N/A   Clear
12:35 PM 77.9 °F - 40.6 °F 26% 29.91 in 10.0 mi West 10.4 mph - N/A   Clear
1:15 PM 82.0 °F - 38.3 °F 21% 29.88 in 10.0 mi West 8.1 mph - N/A   Clear
2:15 PM 90.5 °F - 27.3 °F 10% 29.86 in 10.0 mi North 13.8 mph 18.4 mph N/A   Clear
3:15 PM 91.6 °F - 25.7 °F 9% 29.85 in 10.0 mi NNW 10.4 mph - N/A   Clear
3:35 PM 90.1 °F - 24.4 °F 9% 29.85 in 10.0 mi NNE 10.4 mph 19.6 mph N/A   Clear
3:55 PM 89.6 °F - 24.3 °F 9% 29.86 in 10.0 mi North 16.1 mph 21.9 mph N/A   Clear
4:15 PM 88.5 °F - 24.1 °F 10% 29.86 in 10.0 mi North 13.8 mph - N/A   Clear
4:55 PM 88.0 °F - 25.5 °F 10% 29.87 in 10.0 mi NNE 10.4 mph 17.3 mph N/A   Clear
5:15 PM 88.0 °F - 26.2 °F 11% 29.87 in 10.0 mi NNE 12.7 mph - N/A   Clear
5:35 PM 88.0 °F - 26.4 °F 11% 29.88 in 10.0 mi NNE 16.1 mph - N/A   Clear
5:55 PM 84.7 °F - 27.7 °F 13% 29.88 in 10.0 mi NE 13.8 mph 17.3 mph N/A   Clear
6:35 PM 78.6 °F - 28.4 °F 16% 29.91 in 10.0 mi NNE 10.4 mph - N/A   Clear
6:55 PM 75.7 °F - 28.8 °F 18% 29.93 in 10.0 mi NE 10.4 mph - N/A   Clear
7:15 PM 74.5 °F - 30.0 °F 19% 29.94 in 10.0 mi NE 12.7 mph - N/A   Clear
7:35 PM 72.9 °F - 28.9 °F 20% 29.96 in 10.0 mi NE 11.5 mph - N/A   Clear
7:55 PM 72.9 °F - 29.5 °F 20% 29.97 in 10.0 mi NE 11.5 mph - N/A   Clear
8:15 PM 71.4 °F - 28.9 °F 21% 29.98 in 10.0 mi ENE 9.2 mph - N/A   Clear
8:35 PM 69.6 °F - 29.7 °F 23% 29.99 in 10.0 mi NE 11.5 mph - N/A   Clear
8:55 PM 68.0 °F - 30.2 °F 24% 30.00 in 10.0 mi ENE 11.5 mph - N/A   Clear
9:15 PM 68.0 °F - 31.3 °F 26% 30.02 in 10.0 mi ENE 9.2 mph - N/A   Clear
9:35 PM 68.0 °F - 32.0 °F 26% 30.03 in 10.0 mi ENE 10.4 mph - N/A   Clear
9:55 PM 65.3 °F - 31.5 °F 28% 30.03 in 10.0 mi ENE 9.2 mph - N/A   Clear
10:15 PM 65.3 °F - 31.5 °F 28% 30.05 in 10.0 mi ENE 11.5 mph - N/A   Clear
10:35 PM 65.3 °F - 31.8 °F 29% 30.06 in 10.0 mi East 12.7 mph - N/A   Clear
10:55 PM 61.7 °F - 30.4 °F 31% 30.08 in 10.0 mi ENE 6.9 mph - N/A   Clear
11:15 PM 60.6 °F - 30.4 °F 32% 30.08 in 10.0 mi ENE 8.1 mph - N/A   Clear
11:35 PM 60.3 °F - 30.7 °F 33% 30.08 in 10.0 mi ENE 8.1 mph - N/A   Clear
11:55 PM 59.7 °F - 30.2 °F 33% 30.08 in 10.0 mi ENE 9.2 mph - N/A   Clear